Weather History for PANI - February, 2014

Change the Weather History Date:

Wednesday, February 12, 2014

  Actual Average Record
Temperature  
Mean Temperature -6 °F -  
Max Temperature 3 °F 19 °F 39 °F (2000)
Min Temperature -14 °F 6 °F -41 °F (2008)
Degree Days  
Heating Degree Days 70    
Moisture  
Dew Point -19 °F    
Average Humidity 49    
Maximum Humidity 92    
Minimum Humidity 19    
Precipitation  
Precipitation 0.00 in - - ()
Sea Level Pressure  
Sea Level Pressure 29.75 in    
Wind  
Wind Speed 9 mph (NW)    
Max Wind Speed 17 mph    
Max Gust Speed 23 mph    
Visibility 10 miles    
Events      
Averages and records for this station are not official NWS values.
T = Trace of Precipitation, MM = Missing Value Source: NWS Daily Summary

Daily Weather History Graph

Daily Weather History Graph

Search for Another Location

Airport or City:

Trip Planner

Search our weather history database for the weather conditions in past years. The results will help you decide how hot, cold, wet, or windy it might be!

Date:

Astronomy

Feb. 12, 2014 Rise Set
Actual Time 9:30 AM AKST 6:15 PM AKST
Civil Twilight 8:43 AM AKST 7:02 PM AKST
Nautical Twilight 7:51 AM AKST 7:54 PM AKST
Astronomical Twilight 7:01 AM AKST 8:45 PM AKST
Moon 4:28 PM AKST (2/12) 8:08 AM AKST (2/12)
Length of Visible Light 10h 19m
Length of Day
8h 45m
Waxing Gibbous, 96% of the Moon is Illuminated
Feb 12
Waxing Gibbous
Feb 14
Full
Feb 22
Last Quarter
Feb 28
New
Mar 8
First Quarter

Hourly Weather History & Observations

Time (AKST) Temp. Windchill Dew Point Humidity Pressure Visibility Wind Dir Wind Speed Gust Speed Precip Events Conditions
12:16 AM 1.4 °F -9.9 °F -13.0 °F 51% 29.94 in 10.0 mi NW 5.8 mph - N/A   Mostly Cloudy
12:36 AM 1.4 °F -9.9 °F -7.6 °F 66% 29.93 in 10.0 mi NW 5.8 mph - N/A   Mostly Cloudy
12:56 AM 1.4 °F -9.9 °F -14.8 °F 47% 29.93 in 10.0 mi NW 5.8 mph - N/A   Mostly Cloudy
1:16 AM 1.4 °F -13.5 °F -9.4 °F 61% 29.92 in 10.0 mi NNW 9.2 mph - N/A   Mostly Cloudy
1:36 AM 1.4 °F -14.5 °F -25.6 °F 27% 29.91 in 10.0 mi NW 10.4 mph - N/A   Scattered Clouds
1:56 AM 1.4 °F -12.5 °F -27.4 °F 25% 29.90 in 10.0 mi WNW 8.1 mph - N/A   Overcast
2:16 AM 1.4 °F -11.3 °F -13.0 °F 51% 29.90 in 10.0 mi WNW 6.9 mph - N/A   Overcast
2:36 AM 1.4 °F -9.9 °F -9.4 °F 61% 29.89 in 10.0 mi NW 5.8 mph - N/A   Overcast
2:56 AM 1.4 °F -9.9 °F -14.8 °F 47% 29.89 in 10.0 mi WNW 5.8 mph - N/A   Overcast
3:16 AM 1.4 °F -12.5 °F -14.8 °F 47% 29.88 in 6.0 mi WNW 8.1 mph - N/A   Overcast
3:36 AM 1.4 °F -11.3 °F -0.4 °F 92% 29.88 in 6.0 mi NW 6.9 mph - N/A   Overcast
3:56 AM 3.2 °F -7.8 °F -18.4 °F 36% 29.87 in 5.0 mi NW 5.8 mph - N/A   Overcast
4:16 AM 3.2 °F -9.1 °F -13.0 °F 47% 29.87 in 5.0 mi West 6.9 mph - N/A   Overcast
4:36 AM 3.2 °F -10.3 °F -27.4 °F 23% 29.87 in 6.0 mi WNW 8.1 mph - N/A   Overcast
4:56 AM 1.4 °F -11.3 °F -9.4 °F 61% 29.87 in 10.0 mi West 6.9 mph - N/A   Mostly Cloudy
5:16 AM 1.4 °F -9.9 °F -5.8 °F 72% 29.86 in 10.0 mi West 5.8 mph - N/A   Scattered Clouds
5:36 AM 1.4 °F -11.3 °F -7.6 °F 66% 29.86 in 10.0 mi West 6.9 mph - N/A   Mostly Cloudy
5:56 AM 1.4 °F -12.5 °F -7.6 °F 66% 29.86 in 10.0 mi NW 8.1 mph 16.1 mph N/A   Mostly Cloudy
6:16 AM 1.4 °F -15.3 °F -9.4 °F 61% 29.85 in 10.0 mi NW 11.5 mph 16.1 mph N/A   Overcast
6:36 AM -0.4 °F -17.6 °F -11.2 °F 60% 29.85 in 10.0 mi NW 11.5 mph - N/A   Mostly Cloudy
6:56 AM -0.4 °F -17.6 °F -11.2 °F 60% 29.84 in 10.0 mi NNW 11.5 mph 18.4 mph N/A   Partly Cloudy
7:16 AM -0.4 °F -13.4 °F -9.4 °F 66% 29.83 in 10.0 mi NW 6.9 mph - N/A   Clear
7:36 AM -0.4 °F -10.4 °F -11.2 °F 60% 29.83 in 10.0 mi NNW 4.6 mph - N/A   Partly Cloudy
7:56 AM -2.2 °F -12.5 °F -11.2 °F 66% 29.82 in 10.0 mi West 4.6 mph - N/A   Scattered Clouds
8:16 AM -2.2 °F -10.4 °F -11.2 °F 66% 29.81 in 10.0 mi West 3.5 mph - N/A   Partly Cloudy
8:36 AM -2.2 °F -14.2 °F -11.2 °F 66% 29.81 in 10.0 mi West 5.8 mph - N/A   Clear
8:56 AM -2.2 °F -18.0 °F -9.4 °F 71% 29.81 in 10.0 mi North 9.2 mph 16.1 mph N/A   Clear
9:16 AM -2.2 °F -20.7 °F -18.4 °F 46% 29.80 in 10.0 mi NW 12.7 mph 23.0 mph N/A   Clear
9:36 AM -2.2 °F -22.2 °F -9.4 °F 71% 29.81 in 10.0 mi NNW 15.0 mph 19.6 mph N/A   Clear
9:56 AM -2.2 °F -22.2 °F -23.8 °F 35% 29.80 in 10.0 mi NNW 15.0 mph 23.0 mph N/A   Clear
10:16 AM -4.0 °F -23.0 °F -14.8 °F 60% 29.80 in 10.0 mi NW 12.7 mph 19.6 mph N/A   Clear
10:36 AM -4.0 °F -19.0 °F -16.6 °F 55% 29.80 in 10.0 mi NNW 8.1 mph 17.3 mph N/A   Clear
10:56 AM -2.2 °F -18.9 °F -22.0 °F 39% 29.80 in 10.0 mi NW 10.4 mph - N/A   Clear
11:16 AM -2.2 °F -19.9 °F -13.0 °F 60% 29.79 in 10.0 mi NW 11.5 mph - N/A   Clear
11:36 AM -2.2 °F -22.2 °F -22.0 °F 39% 29.78 in 10.0 mi NNW 15.0 mph 20.7 mph N/A   Clear
11:56 AM -2.2 °F -23.5 °F -16.6 °F 50% 29.78 in 10.0 mi NNW 17.3 mph 21.9 mph N/A   Clear
12:36 PM -2.2 °F -22.2 °F -18.4 °F 46% 29.77 in 10.0 mi NNW 15.0 mph - N/A   Partly Cloudy
12:56 PM -2.2 °F -19.9 °F -16.6 °F 50% 29.76 in 10.0 mi NNW 11.5 mph 16.1 mph N/A   Mostly Cloudy
1:16 PM -2.2 °F -18.9 °F -23.8 °F 35% 29.75 in 10.0 mi NNW 10.4 mph - N/A   Scattered Clouds
1:36 PM -2.2 °F -19.9 °F -14.8 °F 55% 29.75 in 10.0 mi NNW 11.5 mph - N/A   Mostly Cloudy
1:56 PM -2.2 °F -18.0 °F -23.8 °F 35% 29.73 in 3.0 mi NNW 9.2 mph 16.1 mph N/A   Overcast
2:16 PM -2.2 °F -19.9 °F -14.8 °F 55% 29.73 in 10.0 mi NW 11.5 mph 17.3 mph N/A   Overcast
2:36 PM -4.0 °F -24.5 °F -23.8 °F 38% 29.71 in 10.0 mi NNW 15.0 mph 19.6 mph N/A   Overcast
2:56 PM -4.0 °F -24.5 °F -18.4 °F 50% 29.71 in 10.0 mi NNW 15.0 mph 20.7 mph N/A   Overcast
3:16 PM -4.0 °F -23.7 °F -22.0 °F 42% 29.70 in 10.0 mi NNW 13.8 mph 19.6 mph N/A   Scattered Clouds
3:36 PM -4.0 °F -23.0 °F -20.2 °F 46% 29.69 in 10.0 mi NNW 12.7 mph - N/A   Mostly Cloudy
3:56 PM -4.0 °F -23.7 °F -18.4 °F 50% 29.68 in 10.0 mi NNW 13.8 mph - N/A   Mostly Cloudy
4:16 PM -4.0 °F -23.0 °F -25.6 °F 35% 29.67 in 10.0 mi NW 12.7 mph - N/A   Overcast
4:36 PM -4.0 °F -23.0 °F -18.4 °F 50% 29.66 in 10.0 mi NNW 12.7 mph 18.4 mph N/A   Scattered Clouds
4:56 PM -5.8 °F -22.4 °F -23.8 °F 42% 29.65 in 10.0 mi NNW 9.2 mph 18.4 mph N/A   Partly Cloudy
5:16 PM -5.8 °F -24.4 °F -22.0 °F 46% 29.64 in 10.0 mi NNW 11.5 mph - N/A   Clear
5:36 PM -5.8 °F -26.0 °F -22.0 °F 46% 29.64 in 10.0 mi NNW 13.8 mph - N/A   Clear
5:56 PM -5.8 °F -26.8 °F -23.8 °F 42% 29.63 in 10.0 mi NNW 15.0 mph 18.4 mph N/A   Scattered Clouds
6:16 PM -5.8 °F -21.2 °F -20.2 °F 50% 29.63 in 10.0 mi NNW 8.1 mph - N/A   Mostly Cloudy
6:36 PM -5.8 °F -21.2 °F -25.6 °F 38% 29.62 in 10.0 mi NW 8.1 mph - N/A   Overcast
6:56 PM -7.6 °F -30.5 °F -27.4 °F 38% 29.62 in 10.0 mi NNW 17.3 mph - N/A   Partly Cloudy
7:16 PM -7.6 °F -27.5 °F -25.6 °F 41% 29.62 in 10.0 mi NNW 12.7 mph 19.6 mph N/A   Clear
7:36 PM -7.6 °F -24.6 °F -25.6 °F 41% 29.61 in 10.0 mi NW 9.2 mph - N/A   Clear
7:56 PM -9.4 °F -26.8 °F -27.4 °F 41% 29.60 in 10.0 mi NNW 9.2 mph - N/A   Clear
8:16 PM -9.4 °F -27.9 °F -25.6 °F 45% 29.60 in 10.0 mi NW 10.4 mph - N/A   Clear
8:36 PM -9.4 °F -28.9 °F -27.4 °F 41% 29.59 in 10.0 mi NW 11.5 mph 19.6 mph N/A   Clear
8:56 PM -9.4 °F -28.9 °F -29.2 °F 37% 29.59 in 10.0 mi NNW 11.5 mph - N/A   Clear
9:16 PM -9.4 °F -28.9 °F -27.4 °F 41% 29.58 in 10.0 mi NNW 11.5 mph - N/A   Clear
9:36 PM -11.2 °F -31.1 °F -27.4 °F 45% 29.57 in 10.0 mi NNW 11.5 mph - N/A   Clear
9:56 PM -11.2 °F -30.1 °F -29.2 °F 41% 29.57 in 10.0 mi NNW 10.4 mph 17.3 mph N/A   Clear
10:16 PM -11.2 °F -31.1 °F -29.2 °F 41% 29.57 in 10.0 mi NNW 11.5 mph 19.6 mph N/A   Clear
10:36 PM -13.0 °F -34.3 °F -27.4 °F 49% 29.56 in 10.0 mi NNW 12.7 mph - N/A   Clear
10:56 PM -14.8 °F -33.5 °F -27.4 °F 53% 29.56 in 10.0 mi North 9.2 mph - N/A   Clear
11:16 PM -14.8 °F -35.6 °F -29.2 °F 48% 29.55 in 9.0 mi NNW 11.5 mph - N/A   Partly Cloudy
11:36 PM -14.8 °F -32.2 °F -27.4 °F 53% 29.55 in 9.0 mi North 8.1 mph - N/A   Mostly Cloudy
11:56 PM -14.8 °F -32.2 °F -27.4 °F 53% 29.55 in 9.0 mi North 8.1 mph - N/A   Mostly Cloudy